Wind_Speed
97 98 102 107 109 109 108 110 112 111 111 110 107 104 99 95 90 86 81 77 72 65 60 59 60 59 62 67 68 71 78 82 82 86 94 96 113 114
98 104 106 106 109 111 112 113 113 110 106 105 102 97 92 88 84 80 75 71 67 62 57 56 55 55 57 61 65 67 73 79 79 79 88 94 103 118
104 106 106 109 112 113 112 111 109 106 101 97 93 89 83 77 73 71 67 65 61 57 54 54 53 52 52 55 61 65 67 75 79 77 81 89 94 112
105 106 109 112 113 111 111 108 104 97 91 84 82 79 77 72 68 67 65 60 56 53 53 52 50 49 50 51 55 60 64 70 77 78 77 84 92 98
107 109 112 114 112 111 107 103 98 92 86 81 79 76 72 67 64 61 59 56 51 50 51 49 47 47 49 50 53 57 60 64 71 78 79 80 88 98
111 113 116 114 111 106 103 98 92 86 83 79 75 71 67 64 60 58 56 50 47 47 49 44 46 47 47 49 51 54 56 61 69 75 78 80 85 95
114 116 115 112 107 105 101 95 88 83 79 75 71 68 64 61 56 53 53 50 45 46 45 39 47 44 46 45 47 49 53 58 63 70 76 78 82 92
117 116 113 109 108 104 97 90 84 78 75 71 68 65 62 58 54 49 48 48 46 45 41 37 45 43 44 44 44 47 51 56 59 64 72 76 79 86
116 114 112 110 106 99 92 86 81 73 70 67 65 62 60 56 52 47 44 43 42 44 42 36 41 39 43 43 43 46 49 53 56 61 67 74 77 81
116 115 114 108 102 95 88 81 76 70 67 62 60 59 57 54 50 46 44 40 38 41 43 32 37 37 41 43 42 44 46 47 51 57 62 69 75 78
117 115 111 102 96 89 82 77 71 66 62 59 57 55 54 51 49 44 40 40 36 36 41 33 35 36 36 42 41 41 42 44 48 52 58 64 71 76
116 112 103 97 91 83 76 74 67 63 58 56 55 53 52 50 47 44 40 36 36 32 38 34 35 36 31 36 39 38 39 42 45 48 52 57 63 70
112 104 98 91 84 77 72 70 64 60 56 55 53 52 49 46 44 44 40 38 34 33 34 33 32 31 31 30 37 34 37 40 41 43 47 52 59 67
105 98 94 86 78 73 69 65 61 57 55 52 51 50 48 45 42 40 39 37 36 31 32 33 27 27 27 30 30 33 34 37 40 42 46 51 56 63
97 92 90 82 74 70 66 61 59 56 54 52 50 49 47 44 41 37 37 34 33 32 30 28 28 26 26 26 27 30 33 37 40 42 45 49 54 59
91 88 85 78 72 67 63 59 57 54 53 51 48 47 45 42 40 37 35 34 32 31 27 27 24 23 26 25 25 28 31 35 38 40 44 47 52 57
84 85 82 73 67 64 59 57 54 53 52 48 45 44 43 41 38 37 34 33 31 30 28 23 22 22 23 23 24 26 29 32 34 36 38 44 50 55
80 78 78 70 64 60 57 55 53 51 50 47 43 42 41 39 36 35 33 31 30 29 26 23 20 21 22 21 22 25 26 28 30 31 34 39 46 52
78 70 68 64 63 60 57 54 52 49 48 44 42 39 39 38 35 33 32 30 28 26 24 22 20 20 20 20 21 23 24 26 28 30 33 37 41 49
74 68 64 61 60 57 54 52 49 46 45 42 39 38 37 36 34 32 30 28 26 25 22 20 18 19 19 19 20 22 24 25 27 30 33 35 39 45
70 68 63 59 57 54 51 49 47 45 43 40 38 36 34 34 33 30 28 27 25 23 20 19 17 18 19 19 19 21 23 25 26 29 32 34 36 41
68 66 63 57 54 52 50 47 44 42 40 38 36 33 32 32 31 29 27 26 24 22 19 18 17 17 18 19 19 21 23 25 26 27 30 32 33 38
66 64 59 55 51 49 47 45 42 40 38 36 34 31 31 31 29 28 25 25 24 22 19 17 16 17 18 19 20 21 23 25 26 28 29 32 33 35
Wind_Direction
308 305 304 304 304 305 306 307 306 305 304 303 303 302 301 298 297 296 294 291 288 285 280 274 268 263 257 253 249 243 239 239 238 232 227 220 217 215
306 306 307 308 310 310 309 307 306 306 306 304 302 300 299 298 297 295 293 290 287 285 281 275 269 262 255 251 248 243 239 238 237 232 228 224 218 216
308 310 312 313 311 309 308 308 308 307 306 305 303 301 301 299 298 295 292 290 288 285 281 275 270 264 258 251 247 243 238 236 237 233 229 226 220 215
311 312 312 311 310 310 310 310 309 309 308 307 304 303 301 301 298 295 292 290 288 284 279 274 270 264 259 252 246 242 238 235 235 235 229 225 222 218
312 312 312 312 312 312 311 312 313 312 310 308 306 304 303 302 300 296 293 291 287 283 277 274 270 264 258 252 247 243 239 235 233 234 231 225 219 217
313 314 313 313 313 313 314 315 314 312 311 308 307 305 304 302 300 298 295 291 288 282 278 276 268 262 258 251 246 242 240 235 232 232 231 226 220 217
314 313 314 313 315 316 316 315 314 312 311 309 309 307 305 304 301 298 295 293 289 282 277 276 267 264 260 255 248 244 240 236 232 230 230 228 223 218
314 314 314 316 318 317 317 316 313 313 311 311 310 309 306 305 302 300 296 292 288 283 280 272 270 266 260 255 249 245 242 238 234 228 229 228 224 219
314 315 317 319 318 317 317 316 313 314 312 312 311 310 308 306 303 300 294 290 288 284 280 273 270 264 260 256 251 249 241 238 234 230 226 227 224 221
316 317 318 318 317 317 317 314 313 314 312 312 310 309 309 308 305 302 297 292 287 283 281 277 269 263 263 263 257 250 245 239 236 230 226 224 224 221
317 317 317 317 316 316 316 312 313 313 312 312 310 309 308 307 305 302 297 294 288 285 282 279 269 268 264 262 255 250 244 239 235 231 227 224 223 221
316 316 316 315 316 316 315 312 313 312 311 310 309 308 308 307 305 302 298 293 290 286 283 280 278 276 259 253 253 247 244 241 236 232 229 225 222 221
315 315 314 314 315 315 313 312 313 311 310 309 308 307 306 306 304 302 301 297 292 288 281 280 277 269 263 246 249 246 241 239 235 231 227 225 221 220
314 313 312 314 315 314 313 311 311 310 310 308 307 306 305 304 303 301 299 296 294 290 285 285 277 266 254 252 245 246 238 238 235 230 225 222 220 218
313 313 311 314 315 313 312 311 311 310 309 308 306 304 303 302 301 301 299 297 293 292 287 282 278 270 259 251 246 242 238 237 235 232 226 222 219 217
313 312 311 314 314 312 311 310 310 308 307 306 305 303 302 301 300 301 301 299 297 293 288 285 277 264 259 254 247 241 239 237 234 231 226 222 219 217
312 310 310 313 312 310 310 309 308 306 305 304 303 301 301 300 299 301 302 300 298 295 291 283 273 266 259 253 247 242 236 234 233 231 226 220 218 216
312 309 310 312 310 310 309 308 306 306 304 304 302 300 299 299 298 299 301 300 295 293 288 284 272 264 258 251 245 241 235 230 230 228 224 221 218 215
310 309 308 310 309 309 308 307 306 304 302 303 300 298 298 298 298 298 300 300 294 290 285 279 274 267 256 250 242 238 234 227 224 222 219 217 215 214
309 309 309 308 307 307 306 305 304 302 302 302 300 298 296 296 296 296 297 297 293 290 283 276 270 265 258 249 240 232 230 226 221 220 219 217 213 212
308 308 309 308 307 305 304 303 301 301 301 301 299 297 294 294 294 294 295 295 292 289 282 274 268 262 256 249 240 230 225 224 222 220 218 218 215 212
307 307 308 308 306 304 303 301 300 300 300 299 298 296 292 291 292 291 293 294 291 288 281 272 267 258 251 247 239 230 223 222 220 218 218 218 216 212
306 305 306 306 305 302 301 299 299 298 298 297 295 293 289 288 290 289 290 291 289 285 280 271 265 255 246 241 237 231 223 221 221 217 217 217 216 213
Height
10398 10384 10370 10354 10335 10317 10299 10282 10266 10253 10241 10219 10202 10187 10178 10166 10160 10154 10149 10144 10141 10141 10141 10137 10136 10136 10136 10135 10139 10146 10153 10161 10173 10189 10206 10224 10245 10264
10377 10360 10344 10325 10305 10287 10272 10254 10237 10221 10211 10191 10175 10163 10153 10142 10134 10127 10121 10117 10115 10115 10113 10111 10110 10111 10112 10113 10117 10123 10130 10138 10149 10163 10178 10196 10216 10236
10351 10332 10314 10297 10280 10264 10246 10227 10208 10192 10180 10163 10146 10135 10127 10120 10112 10104 10099 10095 10092 10091 10089 10086 10087 10090 10091 10094 10096 10101 10108 10115 10125 10139 10154 10170 10188 10207
10323 10306 10292 10274 10255 10237 10218 10200 10182 10167 10153 10140 10123 10114 10103 10097 10091 10082 10075 10075 10072 10069 10066 10064 10067 10069 10072 10075 10077 10081 10088 10095 10105 10117 10130 10147 10163 10184
10299 10284 10267 10248 10229 10210 10193 10174 10156 10140 10128 10117 10104 10093 10084 10076 10068 10062 10057 10053 10053 10049 10044 10046 10049 10050 10052 10054 10057 10061 10068 10076 10084 10092 10106 10121 10139 10159
10274 10257 10238 10219 10202 10185 10167 10149 10135 10120 10107 10095 10085 10074 10066 10057 10051 10044 10036 10037 10034 10030 10026 10032 10029 10029 10032 10034 10038 10042 10050 10056 10062 10070 10083 10098 10114 10131
10250 10232 10214 10195 10178 10159 10142 10127 10114 10101 10087 10074 10065 10055 10046 10039 10034 10028 10021 10017 10017 10012 10013 10017 10008 10012 10013 10017 10022 10027 10032 10036 10044 10052 10061 10075 10090 10107
10224 10206 10188 10169 10152 10136 10120 10107 10094 10083 10069 10057 10046 10037 10029 10022 10016 10013 10007 10002 9999 9996 9996 10001 9992 9996 9997 10001 10005 10009 10012 10018 10026 10035 10043 10054 10069 10085
10200 10181 10160 10144 10128 10113 10099 10086 10073 10064 10052 10041 10029 10021 10012 10006 10001 9998 9994 9989 9985 9979 9979 9986 9979 9981 9980 9983 9987 9990 9994 10000 10006 10015 10023 10034 10048 10063
10174 10154 10136 10122 10106 10093 10080 10067 10056 10046 10035 10026 10016 10007 9999 9992 9986 9983 9978 9976 9973 9967 9962 9972 9966 9967 9966 9966 9970 9973 9977 9983 9989 9996 10005 10015 10028 10043
10148 10131 10116 10102 10088 10077 10064 10049 10040 10031 10021 10012 10003 9995 9987 9981 9974 9969 9966 9962 9961 9957 9950 9956 9953 9952 9955 9952 9954 9957 9961 9966 9971 9978 9987 9998 10009 10023
10128 10110 10096 10083 10069 10058 10047 10034 10025 10016 10008 9999 9991 9983 9976 9968 9962 9957 9954 9951 9947 9948 9939 9941 9939 9937 9940 9939 9940 9944 9948 9952 9958 9965 9974 9984 9996 10008
10106 10090 10076 10064 10053 10041 10031 10018 10010 10001 9994 9986 9978 9971 9965 9958 9951 9945 9942 9938 9937 9935 9931 9929 9930 9927 9927 9930 9928 9933 9936 9940 9946 9953 9962 9971 9981 9990
10086 10071 10055 10045 10037 10025 10015 10004 9995 9987 9980 9973 9966 9959 9952 9947 9942 9936 9931 9928 9924 9924 9921 9916 9917 9917 9918 9918 9919 9921 9925 9929 9933 9940 9947 9955 9964 9976
10065 10052 10035 10027 10019 10009 9998 9989 9981 9973 9966 9959 9953 9947 9941 9935 9930 9927 9920 9918 9914 9912 9910 9908 9906 9906 9906 9907 9910 9911 9914 9917 9922 9928 9936 9944 9953 9963
10046 10030 10016 10010 10001 9991 9982 9974 9967 9960 9953 9947 9940 9934 9928 9924 9918 9915 9911 9906 9904 9901 9901 9898 9897 9898 9897 9898 9900 9902 9905 9907 9912 9916 9924 9933 9941 9950
10028 10010 9997 9992 9984 9975 9968 9960 9954 9946 9940 9935 9929 9922 9917 9912 9908 9904 9901 9897 9895 9893 9890 9890 9889 9888 9889 9890 9891 9893 9895 9898 9902 9908 9914 9921 9929 9938
10009 9995 9980 9974 9966 9960 9953 9946 9940 9933 9926 9921 9916 9911 9905 9901 9898 9894 9891 9889 9887 9884 9883 9882 9882 9881 9881 9883 9883 9884 9887 9891 9895 9900 9906 9911 9918 9928
9986 9978 9967 9959 9950 9943 9937 9931 9925 9920 9913 9909 9904 9899 9895 9890 9887 9884 9882 9880 9878 9877 9876 9874 9874 9874 9874 9874 9876 9877 9880 9884 9887 9892 9896 9902 9909 9917
9965 9959 9952 9944 9936 9930 9923 9917 9912 9907 9901 9897 9892 9887 9884 9880 9877 9875 9873 9871 9870 9869 9868 9867 9867 9866 9866 9867 9869 9871 9873 9876 9880 9884 9889 9893 9900 9907
9947 9939 9933 9927 9920 9914 9909 9903 9898 9893 9888 9884 9880 9876 9873 9869 9867 9866 9864 9863 9861 9861 9860 9860 9860 9859 9859 9860 9862 9864 9867 9869 9873 9877 9882 9886 9893 9900
9930 9922 9915 9910 9904 9898 9893 9889 9884 9880 9876 9873 9869 9866 9863 9860 9858 9856 9856 9854 9853 9852 9853 9853 9853 9852 9852 9853 9855 9857 9860 9863 9866 9870 9875 9880 9886 9893
9913 9905 9899 9894 9889 9884 9879 9875 9871 9868 9864 9861 9858 9856 9853 9851 9849 9848 9847 9846 9845 9844 9845 9846 9846 9846 9847 9847 9848 9851 9854 9857 9860 9863 9868 9872 9878 9885